Flag for New Zealand Weather past 2 weeks in Wellington, New Zealand

Now
61 °F

Passing clouds.


Feels Like: 61 °F
Forecast: 60 / 63 °F
Wind: 20 mph from North

Location: Wellington Airport


UV Index: 3 (Moderate)

Visibility: N/A


Pressure: 29.59 "Hg

Humidity: 83%

Dew point: 55 °F

Location of WellingtonLocation

Historic Weather in Wellington

°F

Wellington temperature yesterday

Maximum temperature yesterday: 64 °F (at 10:00 AM)
Minimum temperature yesterday: 59 °F (at 2:30 AM)
Average temperature yesterday: 62 °F

Past Weeks' High & Low Weather Summary

 TemperatureHumidityPressure
High73 °F (Apr 18, 2:00 PM)100% (Apr 6, 5:00 AM)30.36 "Hg (Apr 6, 5:00 AM)
Low52 °F (Apr 13, 4:00 AM)60% (Apr 15, 2:00 PM)29.56 "Hg (Apr 19, 11:30 PM)
Average59 °F89%30.00 "Hg
* Reported Apr 5 2:00 AM — Apr 20 1:30 AM, Wellington, Weather by CustomWeather, © 2014

Note: Actual official high and low records may vary slightly from our data, if they occured in-between our weather recording intervals... More about our weather records

Advertising

Historic Weather Conditions — Data for Previous 24 hours

 ConditionsComfort  
Time TempWeatherWind HumidityBarometerVisibility
1:30 AM
Apr 20
63 °FPartly cloudy.18 mph77%29.56 "HgN/A
1:00 AM63 °FPassing clouds.21 mph77%29.56 "HgN/A
12:30 AM63 °FPassing clouds.22 mph77%29.56 "HgN/A
12:00 AM63 °FOvercast.21 mph83%29.56 "HgN/A
11:30 PM
Apr 19
63 °FPassing clouds.21 mph83%29.56 "HgN/A
11:00 PM63 °FPassing clouds.20 mph83%29.59 "HgN/A
10:30 PM63 °FPartly cloudy.18 mph83%29.59 "HgN/A
10:00 PM63 °FPassing clouds.18 mph83%29.59 "HgN/A
9:30 PM63 °FPassing clouds.16 mph83%29.59 "HgN/A
9:00 PM63 °FPartly cloudy.16 mph83%29.59 "HgN/A
8:30 PM63 °FPartly cloudy.15 mph83%29.59 "HgN/A
8:00 PM63 °FMostly cloudy.15 mph83%29.59 "HgN/A
7:30 PM63 °FPassing clouds.14 mph88%29.59 "HgN/A
7:00 PM63 °FPassing clouds.16 mph88%29.59 "HgN/A
6:30 PM63 °FPassing clouds.17 mph83%29.59 "HgN/A
6:00 PM63 °FPassing clouds.17 mph83%29.59 "HgN/A
5:30 PM63 °FPassing clouds.18 mph88%29.59 "HgN/A
5:00 PM63 °FPassing clouds.18 mph88%29.59 "HgN/A
4:30 PM63 °FPartly sunny.20 mph88%29.59 "HgN/A
4:00 PM64 °FOvercast.18 mph83%29.59 "HgN/A
3:30 PM63 °FSprinkles. Mostly cloudy.17 mph88%29.59 "HgN/A
3:00 PM64 °FOvercast.17 mph83%29.62 "HgN/A
2:30 PM64 °FPartly sunny.16 mph83%29.62 "HgN/A
2:00 PM64 °FPartly sunny.17 mph78%29.62 "HgN/A
1:30 PM64 °FBroken clouds.15 mph83%29.62 "HgN/A
1:00 PM64 °FBroken clouds.17 mph83%29.65 "HgN/A
12:30 PM63 °FMostly cloudy.16 mph88%29.65 "HgN/A
12:00 PM64 °FScattered clouds.17 mph78%29.68 "HgN/A
11:30 AM64 °FScattered clouds.16 mph83%29.68 "HgN/A
11:00 AM64 °FBroken clouds.18 mph83%29.68 "HgN/A
10:30 AM64 °FBroken clouds.15 mph88%29.68 "HgN/A
10:00 AM64 °FBroken clouds.12 mph88%29.68 "HgN/A
9:30 AM63 °FSprinkles. Partly sunny.12 mph88%29.68 "HgN/A
9:00 AM63 °FSprinkles. Broken clouds.9 mph88%29.68 "HgN/A
8:30 AM63 °FPartly sunny.8 mph88%29.68 "HgN/A
8:00 AM63 °FSprinkles. Partly sunny.7 mph88%29.68 "Hg6 mi
7:30 AM61 °FBroken clouds.6 mph94%29.68 "HgN/A
7:00 AM63 °FLight rain. Mostly cloudy.7 mph88%29.68 "HgN/A
6:30 AM61 °FBroken clouds.9 mph94%29.68 "HgN/A
6:00 AM61 °FCool.8 mph94%29.68 "HgN/A
5:30 AM61 °FPassing clouds.6 mph94%29.68 "HgN/A
5:00 AM61 °FPartly cloudy.7 mph94%29.68 "HgN/A
4:30 AM61 °FSprinkles. Passing clouds.3 mph94%29.68 "Hg4 mi
4:00 AM61 °FPassing clouds.7 mph94%29.71 "HgN/A
3:30 AM61 °FSprinkles. Mostly cloudy.8 mph94%29.71 "HgN/A
3:00 AM61 °FSprinkles. Partly cloudy.5 mph88%29.71 "HgN/A
2:30 AM59 °FCool.7 mph94%29.71 "HgN/A
2:00 AM61 °FCool.8 mph88%29.71 "HgN/A
Weather by CustomWeather, © 2014

See weather overview